Regional Weather Roundup
Issued by NWS

Home | Current Version | Previous Version | Text Only | Print | Product List | Glossary Off
Versions: 1 2 3 4 5 6 7 8 9 10 11 12 13 14 15 16 17 18 19 20 21 22 23 24 25 26 27 28 29 30 31 32 33 34 35 36 37 38 39 40 41 42 43 44 45 46

000
ASUS45 KBOU 250010
RWRCO

WEATHER ROUNDUP FOR COLORADO
NATIONAL WEATHER SERVICE DENVER/BOULDER CO
600 PM MDT TUE APR 24 2018

NOTE: "FAIR" INDICATES FEW OR NO CLOUDS BELOW 12000 FEET WITH NO
SIGNIFICANT WEATHER AND/OR OBSTRUCTIONS TO VISIBILITY.

COZ001>005-013-030-031-250100-
...NORTHWEST COLORADO...

CITY           SKY/WX    TMP DP  RH WIND       PRES   REMARKS
CRAIG          FAIR      50  22  33 NW21G28   30.30R
HAYDEN         FAIR      50  21  32 W18G24    30.27S
MEEKER         FAIR      52  19  27 N14G22    30.29R
RANGELY        FAIR      56  20  24 NE15G23   30.29S
RABBIT EARS PA CLOUDY    30  19  64 NW6       30.33S WCI  24
STEAMBOAT SPGS PTSUNNY   48  20  33 W3        30.26S
WALDEN         CLOUDY    37  16  41 NE14G20   30.35R
$$

COZ006>008-011-250100-
...WEST CENTRAL VALLEYS...

CITY           SKY/WX    TMP DP  RH WIND       PRES   REMARKS
GRAND JUNCTION FAIR      65  16  15 NE16      30.18R
MONTROSE       FAIR      62  19  19 NW22G31   30.18R
EAGLE          FAIR      57  12  17 NW14G20   30.22R
RIFLE          FAIR      60  16  18 NW10G18   30.22R
DELTA          FAIR      70  15  12 N18G24    30.13R
NUCLA          FAIR      68  18  14 NW20G31   30.17R
$$

COZ017>023-064>068-250100-
...SOUTHWEST COLORADO...

CITY           SKY/WX    TMP DP  RH WIND       PRES   REMARKS
DURANGO        FAIR      63  31  30 N23G31    30.11R
CORTEZ         FAIR      70  24  17 N9        30.09R
PAGOSA SPRINGS FAIR      65  18  16 NW15G24   30.15R
TELLURIDE      CLOUDY    51  24  34 W10G20    30.29S
WOLF CREEK PAS CLOUDY    39  21  48 SW15G26   30.39S
$$

COZ009-010-012-014-032>034-037-058>063-250100-
...CENTRAL COLORADO...

CITY           SKY/WX    TMP DP  RH WIND       PRES   REMARKS
ASPEN          PTSUNNY   51  20  29 N14G23    30.24R
BUENA VISTA    LGT SNOW  34  32  92 SE7       30.29R WCI  28
COPPER MTN     NOT AVBL
BERTHOUD PASS  CLOUDY    19   9  63 NW18G31   30.33S WCI   4
COTTONWOOD PAS SNOW      37  36  93 CALM      30.29R VSB<1/4
GUNNISON       PTSUNNY   56  31  38 SW14G23   30.16F
GRANBY         CLOUDY    41  30  66 SE7       30.27S
KREMMLING      FAIR      54  23  30 N15G21    30.26S
LEADVILLE      FLURRIES  34  29  82 NE7       30.28R WCI  28
MONARCH PASS   PTSUNNY   36  27  69 W26G45    30.42S
SALIDA         CLOUDY    36  32  86 SE18G31   30.34R
SUNLIGHT       FAIR      32  10  40 W6G28     30.38R WCI  26
WILKERSON PASS HVY SNOW  19  16  86 SE7       30.36R VSB<1/4 WCI  10
$$

COZ069>075-250100-
...SAN LUIS VALLEY/SANGRE DE CRISTO MOUNTAINS...

CITY           SKY/WX    TMP DP  RH WIND       PRES   REMARKS
ALAMOSA        PTSUNNY   55  31  39 NE12      30.14R
DEL NORTE      CLOUDY    54  34  46 NE14      30.15R
LA VETA PASS   SNOW      27  23  86 MISG      30.42R VSB 1/4
SAGUACHE       NOT AVBL
$$

COZ035-036-038>040-250100-
...NORTHERN COLORADO FRONT RANGE...

CITY           SKY/WX    TMP DP  RH WIND       PRES   REMARKS
DENVER INTL AP CLOUDY    39  31  72 NW7       30.38S
AURORA         NOT AVBL
FRONT RANGE AP CLOUDY    41  32  70 NW5       30.39S
ERIE MUNI ARPT CLOUDY    38  34  86 W7        30.46S
BOULDER MUN AP LGT RAIN  37  34  87 W7        30.40F
CENTENNIAL     CLOUDY    35  34  96 NW9       30.38S FOG     WCI  28
BROOMFIELD     CLOUDY    36  36 100 SW8       30.41R
FORT COLLINS   CLOUDY    43  27  53 NE7       30.40R
LONGMONT       CLOUDY    41  35  80 SW3       30.42S
$$

COZ041-046-047-076>085-087-088-250100-
...PIKES PEAK/PALMER DIVIDE AND SOUTHERN FOOTHILLS...

CITY           SKY/WX    TMP DP  RH WIND       PRES   REMARKS
COLO. SPRINGS  LGT SNOW  36  31  82 N12       30.37R
A. F. ACADEMY  NOT AVBL
SCHRIEVER AFB  NOT AVBL
CHEYENNE MTN   NOT AVBL
ELLICOTT       LGT SNOW N/A N/A N/A NE14      30.36R
FALCON         CLOUDY    33  27  78 N10       30.37R WCI  25
FORT CARSON    CLOUDY    37  30  77 N14       30.36R
LIMON          CLOUDY    36  31  82 N14       30.37R
MONUMENT HILL  LGT SNOW  30  28  93 N10       30.38R VSB 1   WCI  21
CANON CITY     CLOUDY    37  36  93 SE12      30.38S
WALSENBURG     NOT AVBL
TRINIDAD       CLOUDY    38  32  79 NE10      30.36R
$$

COZ042>045-048>051-090-091-250100-
...NORTHEAST COLORADO...

CITY           SKY/WX    TMP DP  RH WIND       PRES   REMARKS
GREELEY ARPT   CLOUDY    43  26  51 NE15      30.41R
AKRON          CLOUDY    39  31  72 N20       30.38R
BURLINGTON     CLOUDY    37  35  92 N16G28    30.35R
WRAY           CLOUDY    41  32  70 N17G24    30.38S
YUMA           CLOUDY    37  32  81 N18       30.37S
STERLING       NOT AVBL
HOLYOKE        PTSUNNY   43  34  70 N24       30.38S
FORT MORGAN    PTSUNNY   43  26  52 N18G24    30.40R
$$

COZ086-089-092>099-250100-
...SOUTHEAST COLORADO...

CITY           SKY/WX    TMP DP  RH WIND       PRES   REMARKS
PUEBLO         LGT RAIN  38  36  92 SE6       30.39S FOG
LA JUNTA       LGT RAIN  42  34  73 N16       30.39R
LAMAR          CLOUDY    46  31  55 N15G25    30.33R
SPRINGFIELD      N/A     43  33  68 N18       30.30S
$$




USA.gov is the U.S. government's official web portal to all federal, state and local government web resources and services.